This is the latest recevied weather packets stored in our database for station/object HP3ICC-22. If no packets are shown the sender has not sent any weather packets the latest 10 day(s).
| Time | Temp. | Humidity | Pressure | Rain* | Wind** | Luminosity | Snow |
|---|---|---|---|---|---|---|---|
| 1777377497 | 11.11° C | 90% | 1014 hPa | 0 mm | - | - | - |
| 1777376356 | 7.78° C | 86% | 1014 hPa | 0 mm | - | - | - |
| 1777376296 | 7.78° C | 86% | 1014 hPa | 0 mm | - | - | - |
| 1777375156 | 8.33° C | 70% | 1013 hPa | 0 mm | - | - | - |
| 1777375096 | 8.33° C | 70% | 1013 hPa | 0 mm | - | - | - |
| 1777373955 | 7.78° C | 88% | 1015 hPa | 0 mm | - | - | - |
| 1777373895 | 7.78° C | 88% | 1015 hPa | 0 mm | - | - | - |
| 1777372754 | 8.33° C | 70% | 1015 hPa | 0 mm | - | - | - |
| 1777372695 | 8.33° C | 70% | 1015 hPa | 0 mm | - | - | - |
| 1777371554 | 7.78° C | 88% | 1013 hPa | 0 mm | - | - | - |
| 1777371494 | 7.78° C | 88% | 1013 hPa | 0 mm | - | - | - |
| 1777370353 | 8.33° C | 70% | 1014 hPa | 0 mm | - | - | - |
| 1777370293 | 8.33° C | 70% | 1014 hPa | 0 mm | - | - | - |
| 1777369153 | 7.78° C | 87% | 1014 hPa | 0 mm | - | - | - |
| 1777369093 | 7.78° C | 87% | 1014 hPa | 0 mm | - | - | - |
| 1777367952 | 8.33° C | 70% | 1013 hPa | 0 mm | - | - | - |
| 1777367892 | 8.33° C | 70% | 1013 hPa | 0 mm | - | - | - |
| 1777366752 | 7.78° C | 89% | 1014 hPa | 0 mm | - | - | - |
| 1777366691 | 7.78° C | 89% | 1014 hPa | 0 mm | - | - | - |
| 1777365551 | 8.33° C | 70% | 1014 hPa | 0 mm | - | - | - |
| 1777365491 | 8.33° C | 70% | 1014 hPa | 0 mm | - | - | - |
| 1777364351 | 7.22° C | 88% | 1013 hPa | 0 mm | - | - | - |
| 1777364291 | 7.22° C | 88% | 1013 hPa | 0 mm | - | - | - |
| 1777363150 | 7.78° C | 88% | 1014 hPa | 0 mm | - | - | - |
| 1777363090 | 7.78° C | 88% | 1014 hPa | 0 mm | - | - | - |
* Rain latest hour (hover to see other rain measurements)
** Current wind speed in m/s (hover to see current wind gust speed)